This is the latest recevied weather packets stored in our database for station/object W8XLR-2. If no packets are shown the sender has not sent any weather packets the latest 10 day(s).
| Time | Temp. | Humidity | Pressure | Rain* | Wind** | Luminosity | Snow |
|---|---|---|---|---|---|---|---|
| 1778174809 | 15.56° C | 46% | 1014.1 hPa | 0 mm | - | - | - |
| 1778174208 | 15.56° C | 46% | 1014.1 hPa | 0 mm | - | - | - |
| 1778173608 | 15.56° C | 44% | 1014.1 hPa | 0 mm | - | - | - |
| 1778173008 | 14.44° C | 48% | 1014.2 hPa | 0 mm | - | - | - |
| 1778172408 | 14.44° C | 48% | 1014.2 hPa | 0 mm | - | - | - |
| 1778171809 | 14.44° C | 47% | 1014.3 hPa | 0 mm | - | - | - |
| 1778170612 | 13.89° C | 50% | 1014.4 hPa | 0 mm | - | - | - |
| 1778170008 | 14.44° C | 47% | 1014.5 hPa | 0 mm | - | - | - |
| 1778169466 | 14.44° C | 53% | 1014.5 hPa | 0 mm | - | - | - |
| 1778169410 | 14.44° C | 53% | 1014.5 hPa | 0 mm | - | - | - |
| 1778168890 | 14.44° C | 53% | 1014.5 hPa | 0 mm | - | - | - |
| 1778168808 | 14.44° C | 53% | 1014.5 hPa | 0 mm | - | - | - |
| 1778168208 | 13.33° C | 53% | 1014.5 hPa | 0 mm | - | - | - |
| 1778167610 | 12.78° C | 53% | 1014.7 hPa | 0 mm | - | - | - |
| 1778167009 | 12.78° C | 53% | 1014.7 hPa | 0 mm | - | - | - |
| 1778166410 | 12.78° C | 54% | 1014.7 hPa | 0 mm | - | - | - |
| 1778165809 | 12.22° C | 56% | 1014.9 hPa | 0 mm | - | - | - |
| 1778165267 | 12.22° C | 56% | 1014.9 hPa | 0 mm | - | - | - |
| 1778165217 | 12.22° C | 56% | 1014.9 hPa | 0 mm | - | - | - |
| 1778164648 | 12.22° C | 59% | 1014.7 hPa | 0 mm | - | - | - |
| 1778164609 | 12.22° C | 59% | 1014.7 hPa | 0 mm | - | - | - |
| 1778164009 | 12.22° C | 57% | 1015 hPa | 0 mm | - | - | - |
| 1778163408 | 12.22° C | 57% | 1015 hPa | 0 mm | - | - | - |
| 1778162808 | 12.22° C | 63% | 1015.1 hPa | 0 mm | - | - | - |
| 1778162285 | 12.22° C | 62% | 1015.4 hPa | 0 mm | - | - | - |
* Rain latest hour (hover to see other rain measurements)
** Current wind speed in m/s (hover to see current wind gust speed)